Time,TemperatureF,DewpointF,PressureIn,WindDirection,WindDirectionDegrees,WindSpeedMPH,WindSpeedGustMPH,Humidity,HourlyPrecipIn,Conditions,Clouds,dailyrainin,SoftwareType,DateUTC
2013-01-13 00:08:00,70.4,68.6,29.95,SSW,203,0.0,0.0,94,0.00,,,0.00,Wunderground v.1.15,2013-01-13 06:08:00,
2013-01-13 00:13:00,70.3,68.5,29.95,SSW,195,1.0,2.0,94,0.00,,,0.00,Wunderground v.1.15,2013-01-13 06:13:00,
2013-01-13 00:18:00,70.3,68.5,29.95,South,182,1.0,1.0,94,0.00,,,0.00,Wunderground v.1.15,2013-01-13 06:18:00,
2013-01-13 00:23:00,70.3,68.5,29.95,South,186,0.0,1.0,94,0.00,,,0.00,Wunderground v.1.15,2013-01-13 06:23:00,
2013-01-13 00:28:00,70.3,68.5,29.94,South,186,0.0,0.0,94,0.00,,,0.00,Wunderground v.1.15,2013-01-13 06:28:00,
2013-01-13 00:38:00,70.3,68.5,29.94,SSW,195,1.0,1.0,94,0.00,,,0.00,Wunderground v.1.15,2013-01-13 06:38:00,
2013-01-13 00:43:00,70.2,68.4,29.94,SSW,205,0.0,1.0,94,0.00,,,0.00,Wunderground v.1.15,2013-01-13 06:43:00,
2013-01-13 00:48:00,70.2,68.4,29.95,SE,127,0.0,0.0,94,0.00,,,0.00,Wunderground v.1.15,2013-01-13 06:48:00,
2013-01-13 00:53:00,70.2,68.4,29.95,ESE,122,1.0,1.0,94,0.00,,,0.00,Wunderground v.1.15,2013-01-13 06:53:00,
2013-01-13 00:58:00,70.2,68.4,29.95,South,180,1.0,1.0,94,0.00,,,0.00,Wunderground v.1.15,2013-01-13 06:58:00,
2013-01-13 01:08:00,70.2,68.4,29.94,South,183,1.0,1.0,94,0.00,,,0.00,Wunderground v.1.15,2013-01-13 07:08:00,
2013-01-13 01:13:00,70.2,68.4,29.94,SSW,198,1.0,1.0,94,0.00,,,0.00,Wunderground v.1.15,2013-01-13 07:13:00,
2013-01-13 01:18:00,70.2,68.4,29.94,South,173,1.0,1.0,94,0.00,,,0.00,Wunderground v.1.15,2013-01-13 07:18:00,
2013-01-13 01:23:00,70.2,68.4,29.94,SSW,201,1.0,1.0,94,0.00,,,0.00,Wunderground v.1.15,2013-01-13 07:23:00,
2013-01-13 01:28:00,70.2,68.7,29.93,SSE,155,1.0,1.0,95,0.00,,,0.00,Wunderground v.1.15,2013-01-13 07:28:00,
2013-01-13 01:33:00,70.2,68.7,29.93,SSE,153,1.0,1.0,95,0.00,,,0.00,Wunderground v.1.15,2013-01-13 07:33:00,
2013-01-13 01:38:00,70.1,68.6,29.93,SSW,200,1.0,1.0,95,0.00,,,0.00,Wunderground v.1.15,2013-01-13 07:38:00,
2013-01-13 01:43:00,70.1,68.3,29.93,South,186,1.0,1.0,94,0.00,,,0.00,Wunderground v.1.15,2013-01-13 07:43:00,
2013-01-13 01:48:00,70.1,68.6,29.93,SSW,205,1.0,1.0,95,0.00,,,0.00,Wunderground v.1.15,2013-01-13 07:48:00,
2013-01-13 01:53:00,70.2,68.7,29.93,SSE,162,1.0,1.0,95,0.00,,,0.00,Wunderground v.1.15,2013-01-13 07:53:00,
2013-01-13 01:58:00,70.2,68.7,29.93,South,186,1.0,1.0,95,0.00,,,0.00,Wunderground v.1.15,2013-01-13 07:58:00,
2013-01-13 02:08:00,70.2,68.4,29.93,SSW,198,1.0,1.0,94,0.00,,,0.00,Wunderground v.1.15,2013-01-13 08:08:00,
2013-01-13 02:13:00,70.2,68.4,29.93,South,171,1.0,1.0,94,0.00,,,0.00,Wunderground v.1.15,2013-01-13 08:13:00,
2013-01-13 02:18:00,70.2,68.4,29.93,South,184,1.0,2.0,94,0.00,,,0.00,Wunderground v.1.15,2013-01-13 08:18:00,
2013-01-13 02:23:00,70.2,68.4,29.92,SE,146,1.0,2.0,94,0.00,,,0.00,Wunderground v.1.15,2013-01-13 08:23:00,
2013-01-13 02:28:00,70.3,68.5,29.92,South,180,1.0,1.0,94,0.00,,,0.00,Wunderground v.1.15,2013-01-13 08:28:00,
2013-01-13 02:33:00,70.3,68.5,29.92,ESE,103,1.0,1.0,94,0.00,,,0.00,Wunderground v.1.15,2013-01-13 08:33:00,
2013-01-13 02:38:00,70.3,68.5,29.92,ESE,121,1.0,2.0,94,0.00,,,0.00,Wunderground v.1.15,2013-01-13 08:38:00,
2013-01-13 02:43:00,70.3,68.5,29.92,South,173,1.0,2.0,94,0.00,,,0.00,Wunderground v.1.15,2013-01-13 08:43:00,
2013-01-13 02:48:00,70.3,68.5,29.91,SSW,196,1.0,1.0,94,0.00,,,0.00,Wunderground v.1.15,2013-01-13 08:48:00,
2013-01-13 02:53:00,70.3,68.5,29.92,South,188,1.0,3.0,94,0.00,,,0.00,Wunderground v.1.15,2013-01-13 08:53:00,
2013-01-13 02:58:00,70.3,68.8,29.92,SE,126,1.0,1.0,95,0.00,,,0.00,Wunderground v.1.15,2013-01-13 08:58:00,
2013-01-13 03:08:00,70.4,68.6,29.91,South,177,1.0,1.0,94,0.00,,,0.00,Wunderground v.1.15,2013-01-13 09:08:00,
2013-01-13 03:13:00,70.4,68.6,29.91,SSW,203,1.0,1.0,94,0.00,,,0.00,Wunderground v.1.15,2013-01-13 09:13:00,
2013-01-13 03:18:00,70.4,68.6,29.92,SSW,192,1.0,1.0,94,0.00,,,0.00,Wunderground v.1.15,2013-01-13 09:18:00,
2013-01-13 03:23:00,70.4,68.9,29.92,SE,132,1.0,1.0,95,0.00,,,0.00,Wunderground v.1.15,2013-01-13 09:23:00,
2013-01-13 03:28:00,70.5,69.0,29.92,South,172,1.0,2.0,95,0.00,,,0.00,Wunderground v.1.15,2013-01-13 09:28:00,
2013-01-13 03:33:00,70.6,68.8,29.92,SSE,166,1.0,2.0,94,0.00,,,0.00,Wunderground v.1.15,2013-01-13 09:33:00,
2013-01-13 03:38:00,70.6,68.8,29.92,SSE,165,1.0,1.0,94,0.00,,,0.00,Wunderground v.1.15,2013-01-13 09:38:00,
2013-01-13 03:43:00,70.6,68.8,29.92,SSW,193,1.0,1.0,94,0.00,,,0.00,Wunderground v.1.15,2013-01-13 09:43:00,
2013-01-13 03:48:00,70.6,68.8,29.92,SSE,163,1.0,1.0,94,0.00,,,0.00,Wunderground v.1.15,2013-01-13 09:48:00,
2013-01-13 03:53:00,70.7,68.9,29.92,SSW,196,1.0,2.0,94,0.00,,,0.00,Wunderground v.1.15,2013-01-13 09:53:00,
2013-01-13 03:58:00,70.7,68.9,29.92,South,181,1.0,1.0,94,0.00,,,0.00,Wunderground v.1.15,2013-01-13 09:58:00,
2013-01-13 04:08:00,70.8,69.0,29.92,SSW,195,1.0,1.0,94,0.00,,,0.00,Wunderground v.1.15,2013-01-13 10:08:00,
2013-01-13 04:13:00,70.8,69.0,29.92,South,183,1.0,1.0,94,0.00,,,0.00,Wunderground v.1.15,2013-01-13 10:13:00,
2013-01-13 04:18:00,70.9,69.1,29.93,SSW,194,1.0,4.0,94,0.00,,,0.00,Wunderground v.1.15,2013-01-13 10:18:00,
2013-01-13 04:23:00,70.9,69.1,29.92,SE,126,2.0,4.0,94,0.00,,,0.00,Wunderground v.1.15,2013-01-13 10:23:00,
2013-01-13 04:28:00,71.0,69.2,29.92,South,179,2.0,2.0,94,0.00,,,0.00,Wunderground v.1.15,2013-01-13 10:28:00,
2013-01-13 04:33:00,71.0,69.2,29.92,South,182,1.0,2.0,94,0.00,,,0.00,Wunderground v.1.15,2013-01-13 10:33:00,
2013-01-13 04:38:00,70.9,69.1,29.92,SE,144,1.0,1.0,94,0.00,,,0.00,Wunderground v.1.15,2013-01-13 10:38:00,
2013-01-13 04:43:00,70.9,69.1,29.92,South,183,1.0,3.0,94,0.00,,,0.00,Wunderground v.1.15,2013-01-13 10:43:00,
2013-01-13 04:48:00,70.8,69.0,29.92,SSW,201,1.0,1.0,94,0.00,,,0.00,Wunderground v.1.15,2013-01-13 10:48:00,
2013-01-13 04:53:00,70.8,69.0,29.92,South,173,1.0,2.0,94,0.00,,,0.00,Wunderground v.1.15,2013-01-13 10:53:00,
2013-01-13 04:58:00,70.8,69.0,29.93,ESE,116,1.0,1.0,94,0.00,,,0.00,Wunderground v.1.15,2013-01-13 10:58:00,
2013-01-13 05:08:00,70.8,69.0,29.93,ESE,123,1.0,1.0,94,0.00,,,0.00,Wunderground v.1.15,2013-01-13 11:08:00,
2013-01-13 05:13:00,70.7,68.9,29.93,SSW,200,1.0,1.0,94,0.00,,,0.00,Wunderground v.1.15,2013-01-13 11:13:00,
2013-01-13 05:18:00,70.7,68.9,29.93,SSE,165,1.0,1.0,94,0.00,,,0.00,Wunderground v.1.15,2013-01-13 11:18:00,
2013-01-13 05:23:00,70.7,68.9,29.93,SSE,167,2.0,2.0,94,0.00,,,0.00,Wunderground v.1.15,2013-01-13 11:23:00,
2013-01-13 05:28:00,70.7,68.9,29.93,SE,146,1.0,5.0,94,0.00,,,0.00,Wunderground v.1.15,2013-01-13 11:28:00,
2013-01-13 05:33:00,70.7,68.9,29.93,SSE,161,1.0,5.0,94,0.00,,,0.00,Wunderground v.1.15,2013-01-13 11:33:00,
2013-01-13 05:38:00,70.6,68.8,29.94,South,175,2.0,2.0,94,0.00,,,0.00,Wunderground v.1.15,2013-01-13 11:38:00,
2013-01-13 05:43:00,70.6,68.8,29.94,South,188,2.0,2.0,94,0.00,,,0.00,Wunderground v.1.15,2013-01-13 11:43:00,
2013-01-13 05:48:00,70.6,69.1,29.94,South,188,1.0,3.0,95,0.00,,,0.00,Wunderground v.1.15,2013-01-13 11:48:00,
2013-01-13 05:53:00,70.6,69.1,29.94,South,191,1.0,3.0,95,0.00,,,0.00,Wunderground v.1.15,2013-01-13 11:53:00,
2013-01-13 05:57:00,70.5,69.0,29.93,South,188,1.0,1.0,95,0.00,,,0.00,Wunderground v.1.15,2013-01-13 11:57:00,
2013-01-13 06:08:00,70.6,69.1,29.93,ESE,110,1.0,1.0,95,0.00,,,0.00,Wunderground v.1.15,2013-01-13 12:08:00,
2013-01-13 06:13:00,70.5,69.0,29.93,South,175,1.0,2.0,95,0.00,,,0.00,Wunderground v.1.15,2013-01-13 12:13:00,
2013-01-13 06:18:00,70.5,69.0,29.94,SSE,158,1.0,1.0,95,0.00,,,0.00,Wunderground v.1.15,2013-01-13 12:18:00,
2013-01-13 06:23:00,70.5,69.0,29.94,South,179,1.0,1.0,95,0.00,,,0.00,Wunderground v.1.15,2013-01-13 12:23:00,
2013-01-13 06:28:00,70.4,68.9,29.94,South,171,1.0,1.0,95,0.00,,,0.00,Wunderground v.1.15,2013-01-13 12:28:00,
2013-01-13 06:33:00,70.4,68.9,29.94,South,179,2.0,3.0,95,0.00,,,0.00,Wunderground v.1.15,2013-01-13 12:33:00,
2013-01-13 06:38:00,70.4,68.9,29.94,SSE,157,1.0,1.0,95,0.00,,,0.00,Wunderground v.1.15,2013-01-13 12:38:00,
2013-01-13 06:43:00,70.4,68.9,29.94,SSW,213,1.0,5.0,95,0.00,,,0.00,Wunderground v.1.15,2013-01-13 12:43:00,
2013-01-13 06:48:00,70.4,68.9,29.94,South,185,1.0,1.0,95,0.00,,,0.00,Wunderground v.1.15,2013-01-13 12:48:00,
2013-01-13 06:58:00,70.3,68.8,29.94,SSE,158,1.0,1.0,95,0.00,,,0.00,Wunderground v.1.15,2013-01-13 12:58:00,
2013-01-13 07:08:00,70.3,68.8,29.94,South,172,2.0,2.0,95,0.00,,,0.00,Wunderground v.1.15,2013-01-13 13:08:00,
2013-01-13 07:13:00,70.3,68.8,29.94,South,184,2.0,2.0,95,0.00,,,0.00,Wunderground v.1.15,2013-01-13 13:13:00,
2013-01-13 07:18:00,70.3,68.8,29.94,SSW,201,1.0,1.0,95,0.00,,,0.00,Wunderground v.1.15,2013-01-13 13:18:00,
2013-01-13 07:23:00,70.4,68.9,29.95,South,174,1.0,1.0,95,0.00,,,0.00,Wunderground v.1.15,2013-01-13 13:23:00,
2013-01-13 07:28:00,70.4,68.9,29.95,South,183,1.0,1.0,95,0.00,,,0.00,Wunderground v.1.15,2013-01-13 13:28:00,
2013-01-13 07:33:00,70.5,69.0,29.95,South,183,1.0,1.0,95,0.00,,,0.00,Wunderground v.1.15,2013-01-13 13:33:00,
2013-01-13 07:38:00,70.6,69.1,29.95,SE,134,1.0,1.0,95,0.00,,,0.00,Wunderground v.1.15,2013-01-13 13:38:00,
2013-01-13 07:43:00,70.7,69.2,29.95,South,178,1.0,1.0,95,0.00,,,0.00,Wunderground v.1.15,2013-01-13 13:43:00,
2013-01-13 07:48:00,70.8,69.3,29.95,ESE,122,2.0,2.0,95,0.00,,,0.00,Wunderground v.1.15,2013-01-13 13:48:00,
2013-01-13 07:53:00,71.0,69.2,29.95,SSW,192,2.0,3.0,94,0.00,,,0.00,Wunderground v.1.15,2013-01-13 13:53:00,
2013-01-13 07:58:00,71.2,69.4,29.95,South,178,2.0,2.0,94,0.00,,,0.00,Wunderground v.1.15,2013-01-13 13:58:00,
2013-01-13 08:08:00,71.3,69.2,29.95,South,178,1.0,1.0,93,0.00,,,0.00,Wunderground v.1.15,2013-01-13 14:08:00,
2013-01-13 08:13:00,71.3,69.2,29.95,SSE,167,1.0,2.0,93,0.00,,,0.00,Wunderground v.1.15,2013-01-13 14:13:00,
2013-01-13 08:18:00,71.4,69.3,29.95,South,182,1.0,3.0,93,0.00,,,0.00,Wunderground v.1.15,2013-01-13 14:18:00,
2013-01-13 08:23:00,71.5,69.4,29.95,SE,131,1.0,3.0,93,0.00,,,0.00,Wunderground v.1.15,2013-01-13 14:23:00,
2013-01-13 08:28:00,71.6,69.2,29.94,South,171,1.0,1.0,92,0.00,,,0.00,Wunderground v.1.15,2013-01-13 14:28:00,
2013-01-13 08:33:00,71.7,69.3,29.95,South,180,1.0,3.0,92,0.00,,,0.00,Wunderground v.1.15,2013-01-13 14:33:00,
2013-01-13 08:38:00,71.8,69.3,29.95,South,178,2.0,9.0,92,0.00,,,0.00,Wunderground v.1.15,2013-01-13 14:38:00,
2013-01-13 08:43:00,72.0,69.5,29.95,SSW,201,2.0,9.0,92,0.00,,,0.00,Wunderground v.1.15,2013-01-13 14:43:00,
2013-01-13 08:48:00,72.1,69.3,29.95,SSE,168,2.0,2.0,91,0.00,,,0.00,Wunderground v.1.15,2013-01-13 14:48:00,
2013-01-13 08:53:00,72.2,69.4,29.95,South,179,2.0,2.0,91,0.00,,,0.00,Wunderground v.1.15,2013-01-13 14:53:00,
2013-01-13 08:58:00,72.3,69.2,29.95,SSW,195,2.0,2.0,90,0.00,,,0.00,Wunderground v.1.15,2013-01-13 14:58:00,
2013-01-13 09:07:00,72.6,69.5,29.96,SSE,167,2.0,2.0,90,0.00,,,0.00,Wunderground v.1.15,2013-01-13 15:07:00,
2013-01-13 09:12:00,72.8,69.7,29.96,South,170,2.0,6.0,90,0.00,,,0.00,Wunderground v.1.15,2013-01-13 15:12:00,
2013-01-13 09:18:00,72.9,69.5,29.97,South,181,2.0,2.0,89,0.00,,,0.00,Wunderground v.1.15,2013-01-13 15:18:00,
2013-01-13 09:23:00,73.1,69.3,29.97,South,178,2.0,2.0,88,0.00,,,0.00,Wunderground v.1.15,2013-01-13 15:23:00,
2013-01-13 09:28:00,73.3,69.5,29.97,SSW,196,2.0,2.0,88,0.00,,,0.00,Wunderground v.1.15,2013-01-13 15:28:00,
2013-01-13 09:33:00,73.5,69.7,29.96,SSE,162,2.0,2.0,88,0.00,,,0.00,Wunderground v.1.15,2013-01-13 15:33:00,
2013-01-13 09:37:00,73.7,69.6,29.96,South,178,2.0,2.0,87,0.00,,,0.00,Wunderground v.1.15,2013-01-13 15:37:00,
2013-01-13 09:43:00,73.9,69.4,29.97,SE,125,2.0,2.0,86,0.00,,,0.00,Wunderground v.1.15,2013-01-13 15:43:00,
2013-01-13 09:48:00,74.0,69.5,29.95,South,175,2.0,2.0,86,0.00,,,0.00,Wunderground v.1.15,2013-01-13 15:48:00,
2013-01-13 09:53:00,74.1,69.6,29.95,SE,140,2.0,2.0,86,0.00,,,0.00,Wunderground v.1.15,2013-01-13 15:53:00,
2013-01-13 09:58:00,74.2,69.7,29.95,SSE,152,2.0,2.0,86,0.00,,,0.00,Wunderground v.1.15,2013-01-13 15:58:00,
2013-01-13 10:08:00,74.8,70.3,29.95,South,191,2.0,2.0,86,0.00,,,0.00,Wunderground v.1.15,2013-01-13 16:08:00,
2013-01-13 10:13:00,74.9,70.1,29.95,SSW,209,2.0,3.0,85,0.00,,,0.00,Wunderground v.1.15,2013-01-13 16:13:00,
2013-01-13 10:18:00,75.0,70.2,29.95,South,191,2.0,2.0,85,0.00,,,0.00,Wunderground v.1.15,2013-01-13 16:18:00,
2013-01-13 10:23:00,75.2,70.4,29.95,South,185,2.0,2.0,85,0.00,,,0.00,Wunderground v.1.15,2013-01-13 16:23:00,
2013-01-13 10:28:00,75.5,70.7,29.95,SSW,205,1.0,2.0,85,0.00,,,0.00,Wunderground v.1.15,2013-01-13 16:28:00,
2013-01-13 10:33:00,75.8,70.6,29.96,South,175,1.0,2.0,84,0.00,,,0.00,Wunderground v.1.15,2013-01-13 16:33:00,
2013-01-13 10:38:00,76.0,70.5,29.97,SW,227,2.0,2.0,83,0.00,,,0.00,Wunderground v.1.15,2013-01-13 16:38:00,
2013-01-13 10:43:00,75.9,70.7,29.97,South,179,2.0,2.0,84,0.00,,,0.00,Wunderground v.1.15,2013-01-13 16:43:00,
2013-01-13 10:48:00,75.8,70.3,29.97,SSW,208,2.0,3.0,83,0.00,,,0.00,Wunderground v.1.15,2013-01-13 16:48:00,
2013-01-13 10:53:00,75.8,70.6,29.96,South,186,2.0,3.0,84,0.00,,,0.00,Wunderground v.1.15,2013-01-13 16:53:00,
2013-01-13 10:58:00,75.7,70.5,29.96,SSW,200,3.0,3.0,84,0.00,,,0.00,Wunderground v.1.15,2013-01-13 16:58:00,
2013-01-13 11:08:00,75.7,70.5,29.97,South,184,2.0,6.0,84,0.00,,,0.00,Wunderground v.1.15,2013-01-13 17:08:00,
2013-01-13 11:13:00,75.5,70.3,29.96,SSW,197,3.0,6.0,84,0.00,,,0.00,Wunderground v.1.15,2013-01-13 17:13:00,
2013-01-13 11:18:00,75.4,70.6,29.96,South,184,2.0,4.0,85,0.00,,,0.00,Wunderground v.1.15,2013-01-13 17:18:00,
2013-01-13 11:23:00,75.4,70.6,29.96,ESE,120,2.0,4.0,85,0.00,,,0.00,Wunderground v.1.15,2013-01-13 17:23:00,
2013-01-13 11:28:00,75.4,70.6,29.96,South,180,2.0,5.0,85,0.00,,,0.00,Wunderground v.1.15,2013-01-13 17:28:00,
2013-01-13 11:33:00,75.4,70.6,29.95,SW,225,2.0,6.0,85,0.00,,,0.00,Wunderground v.1.15,2013-01-13 17:33:00,
2013-01-13 11:38:00,75.4,70.6,29.94,South,176,2.0,2.0,85,0.00,,,0.00,Wunderground v.1.15,2013-01-13 17:38:00,
2013-01-13 11:43:00,75.6,70.8,29.94,SSE,161,2.0,2.0,85,0.00,,,0.00,Wunderground v.1.15,2013-01-13 17:43:00,
2013-01-13 11:53:00,76.0,70.8,29.94,SW,225,2.0,6.0,84,0.00,,,0.00,Wunderground v.1.15,2013-01-13 17:53:00,
2013-01-13 11:58:00,76.0,70.5,29.94,South,180,2.0,4.0,83,0.00,,,0.00,Wunderground v.1.15,2013-01-13 17:58:00,
2013-01-13 12:08:00,75.8,71.0,29.94,SSW,196,2.0,2.0,85,0.00,,,0.00,Wunderground v.1.15,2013-01-13 18:08:00,
2013-01-13 12:13:00,75.9,70.7,29.94,South,188,2.0,2.0,84,0.00,,,0.00,Wunderground v.1.15,2013-01-13 18:13:00,
2013-01-13 12:18:00,76.0,70.8,29.93,South,190,2.0,3.0,84,0.00,,,0.00,Wunderground v.1.15,2013-01-13 18:18:00,
2013-01-13 12:23:00,75.9,70.7,29.93,SSW,192,3.0,3.0,84,0.00,,,0.00,Wunderground v.1.15,2013-01-13 18:23:00,
2013-01-13 12:28:00,76.0,71.2,29.93,SSW,201,2.0,6.0,85,0.00,,,0.00,Wunderground v.1.15,2013-01-13 18:28:00,
2013-01-13 12:38:00,76.4,71.6,29.93,SSW,192,2.0,2.0,85,0.00,,,0.00,Wunderground v.1.15,2013-01-13 18:38:00,
2013-01-13 12:43:00,76.4,71.2,29.93,South,176,2.0,2.0,84,0.00,,,0.00,Wunderground v.1.15,2013-01-13 18:43:00,
2013-01-13 12:48:00,76.1,70.9,29.93,South,176,2.0,2.0,84,0.00,,,0.00,Wunderground v.1.15,2013-01-13 18:48:00,
2013-01-13 12:53:00,75.9,71.1,29.93,South,186,2.0,5.0,85,0.00,,,0.00,Wunderground v.1.15,2013-01-13 18:53:00,
2013-01-13 12:58:00,75.8,71.0,29.93,South,179,2.0,2.0,85,0.00,,,0.00,Wunderground v.1.15,2013-01-13 18:58:00,
2013-01-13 13:08:00,75.5,71.0,29.93,SSW,196,1.0,1.0,86,0.00,,,0.00,Wunderground v.1.15,2013-01-13 19:08:00,
2013-01-13 13:13:00,75.4,70.6,29.93,ESE,109,1.0,1.0,85,0.00,,,0.00,Wunderground v.1.15,2013-01-13 19:13:00,
2013-01-13 13:22:00,75.3,70.8,29.93,South,181,1.0,5.0,86,0.00,,,0.00,Wunderground v.1.15,2013-01-13 19:22:00,
2013-01-13 13:28:00,75.2,70.7,29.93,South,181,2.0,5.0,86,0.00,,,0.00,Wunderground v.1.15,2013-01-13 19:28:00,
2013-01-13 13:33:00,75.1,70.6,29.93,South,186,2.0,5.0,86,0.00,,,0.00,Wunderground v.1.15,2013-01-13 19:33:00,
2013-01-13 13:38:00,75.3,70.8,29.93,South,190,2.0,2.0,86,0.00,,,0.00,Wunderground v.1.15,2013-01-13 19:38:00,
2013-01-13 13:43:00,75.5,71.0,29.93,South,180,2.0,2.0,86,0.00,,,0.00,Wunderground v.1.15,2013-01-13 19:43:00,
2013-01-13 13:53:00,75.7,71.2,29.92,SSW,201,2.0,2.0,86,0.00,,,0.00,Wunderground v.1.15,2013-01-13 19:53:00,
2013-01-13 13:58:00,75.9,71.4,29.93,SSW,192,2.0,3.0,86,0.00,,,0.00,Wunderground v.1.15,2013-01-13 19:58:00,
2013-01-13 14:08:00,75.8,71.0,29.93,SW,216,2.0,2.0,85,0.00,,,0.00,Wunderground v.1.15,2013-01-13 20:08:00,
2013-01-13 14:13:00,75.4,70.6,29.92,SSW,197,2.0,3.0,85,0.00,,,0.00,Wunderground v.1.15,2013-01-13 20:13:00,
2013-01-13 14:18:00,75.4,70.9,29.92,SE,136,2.0,2.0,86,0.00,,,0.00,Wunderground v.1.15,2013-01-13 20:18:00,
2013-01-13 14:23:00,75.4,70.9,29.92,South,179,2.0,3.0,86,0.00,,,0.00,Wunderground v.1.15,2013-01-13 20:23:00,
2013-01-13 14:28:00,75.4,70.9,29.92,SSW,192,3.0,3.0,86,0.00,,,0.00,Wunderground v.1.15,2013-01-13 20:28:00,
2013-01-13 14:38:00,75.4,70.9,29.92,ESE,117,2.0,2.0,86,0.00,,,0.00,Wunderground v.1.15,2013-01-13 20:38:00,
2013-01-13 14:43:00,75.4,70.9,29.92,SSW,205,2.0,2.0,86,0.00,,,0.00,Wunderground v.1.15,2013-01-13 20:43:00,
2013-01-13 14:48:00,75.3,70.8,29.92,South,188,2.0,3.0,86,0.00,,,0.00,Wunderground v.1.15,2013-01-13 20:48:00,
2013-01-13 14:53:00,75.3,70.8,29.92,South,187,2.0,3.0,86,0.00,,,0.00,Wunderground v.1.15,2013-01-13 20:53:00,
2013-01-13 14:58:00,75.2,70.7,29.92,South,183,2.0,4.0,86,0.00,,,0.00,Wunderground v.1.15,2013-01-13 20:58:00,
2013-01-13 15:08:00,75.1,70.6,29.92,SSW,208,2.0,4.0,86,0.00,,,0.00,Wunderground v.1.15,2013-01-13 21:08:00,
2013-01-13 15:13:00,75.1,70.6,29.92,South,175,2.0,4.0,86,0.00,,,0.00,Wunderground v.1.15,2013-01-13 21:13:00,
2013-01-13 15:18:00,75.1,70.6,29.92,South,184,2.0,2.0,86,0.00,,,0.00,Wunderground v.1.15,2013-01-13 21:18:00,
2013-01-13 15:28:00,75.1,70.6,29.93,South,190,2.0,4.0,86,0.00,,,0.00,Wunderground v.1.15,2013-01-13 21:28:00,
2013-01-13 15:33:00,74.9,70.4,29.93,SSW,202,2.0,5.0,86,0.00,,,0.00,Wunderground v.1.15,2013-01-13 21:33:00,
2013-01-13 15:38:00,74.8,70.3,29.93,SSW,197,2.0,3.0,86,0.00,,,0.00,Wunderground v.1.15,2013-01-13 21:38:00,
2013-01-13 15:47:00,74.6,70.5,29.93,SSW,205,2.0,4.0,87,0.00,,,0.00,Wunderground v.1.15,2013-01-13 21:47:00,
2013-01-13 15:53:00,74.6,70.5,29.93,ESE,123,1.0,4.0,87,0.00,,,0.00,Wunderground v.1.15,2013-01-13 21:53:00,
2013-01-13 15:58:00,74.5,70.4,29.94,SSW,201,1.0,1.0,87,0.00,,,0.00,Wunderground v.1.15,2013-01-13 21:58:00,
2013-01-13 16:08:00,74.3,70.2,29.94,South,175,2.0,2.0,87,0.00,,,0.00,Wunderground v.1.15,2013-01-13 22:08:00,
2013-01-13 16:13:00,74.2,70.4,29.94,South,179,1.0,2.0,88,0.00,,,0.00,Wunderground v.1.15,2013-01-13 22:13:00,
2013-01-13 16:18:00,74.1,70.3,29.95,SSW,194,2.0,2.0,88,0.00,,,0.00,Wunderground v.1.15,2013-01-13 22:18:00,
2013-01-13 16:23:00,74.1,70.3,29.94,South,182,2.0,2.0,88,0.00,,,0.00,Wunderground v.1.15,2013-01-13 22:23:00,
2013-01-13 16:28:00,74.0,70.2,29.95,South,190,2.0,2.0,88,0.00,,,0.00,Wunderground v.1.15,2013-01-13 22:28:00,
2013-01-13 16:33:00,73.9,70.1,29.95,SSW,198,2.0,5.0,88,0.00,,,0.00,Wunderground v.1.15,2013-01-13 22:33:00,
2013-01-13 16:43:00,73.7,70.3,29.95,South,170,2.0,4.0,89,0.00,,,0.00,Wunderground v.1.15,2013-01-13 22:43:00,
2013-01-13 16:48:00,73.6,70.2,29.95,ESE,102,2.0,2.0,89,0.00,,,0.00,Wunderground v.1.15,2013-01-13 22:48:00,
2013-01-13 16:53:00,73.5,70.1,29.95,SSW,192,1.0,3.0,89,0.00,,,0.00,Wunderground v.1.15,2013-01-13 22:53:00,
2013-01-13 16:58:00,73.4,70.3,29.95,SSW,195,2.0,3.0,90,0.00,,,0.00,Wunderground v.1.15,2013-01-13 22:58:00,
2013-01-13 17:08:00,73.1,70.0,29.94,SSW,201,2.0,3.0,90,0.00,,,0.00,Wunderground v.1.15,2013-01-13 23:08:00,
2013-01-13 17:13:00,73.0,69.9,29.94,SSW,192,2.0,3.0,90,0.00,,,0.00,Wunderground v.1.15,2013-01-13 23:13:00,
2013-01-13 17:18:00,73.0,70.2,29.95,SSW,207,2.0,3.0,91,0.00,,,0.00,Wunderground v.1.15,2013-01-13 23:18:00,
2013-01-13 17:23:00,73.0,70.2,29.95,South,173,1.0,3.0,91,0.00,,,0.00,Wunderground v.1.15,2013-01-13 23:23:00,
2013-01-13 17:28:00,72.9,70.1,29.95,South,182,2.0,2.0,91,0.00,,,0.00,Wunderground v.1.15,2013-01-13 23:28:00,
2013-01-13 17:33:00,72.8,70.0,29.95,SSW,192,1.0,3.0,91,0.00,,,0.00,Wunderground v.1.15,2013-01-13 23:33:00,
2013-01-13 17:38:00,72.8,70.0,29.95,South,181,1.0,1.0,91,0.00,,,0.00,Wunderground v.1.15,2013-01-13 23:38:00,
2013-01-13 17:43:00,72.8,70.0,29.95,South,182,1.0,1.0,91,0.00,,,0.00,Wunderground v.1.15,2013-01-13 23:43:00,
2013-01-13 17:48:00,72.7,69.9,29.95,SSW,197,1.0,1.0,91,0.00,,,0.00,Wunderground v.1.15,2013-01-13 23:48:00,
2013-01-13 17:53:00,72.6,69.8,29.94,South,172,1.0,1.0,91,0.00,,,0.00,Wunderground v.1.15,2013-01-13 23:53:00,
2013-01-13 17:58:00,72.4,69.9,29.95,South,184,1.0,1.0,92,0.00,,,0.00,Wunderground v.1.15,2013-01-13 23:58:00,
2013-01-13 18:08:00,72.3,69.8,29.96,South,169,0.0,0.0,92,0.00,,,0.00,Wunderground v.1.15,2013-01-14 00:08:00,
2013-01-13 18:13:00,72.2,69.7,29.96,South,184,0.0,0.0,92,0.00,,,0.00,Wunderground v.1.15,2013-01-14 00:13:00,
2013-01-13 18:18:00,72.2,70.1,29.96,SSW,193,1.0,1.0,93,0.00,,,0.00,Wunderground v.1.15,2013-01-14 00:18:00,
2013-01-13 18:23:00,72.1,70.0,29.96,South,189,0.0,1.0,93,0.00,,,0.00,Wunderground v.1.15,2013-01-14 00:23:00,
2013-01-13 18:28:00,72.1,70.0,29.96,South,179,0.0,0.0,93,0.00,,,0.00,Wunderground v.1.15,2013-01-14 00:28:00,
2013-01-13 18:33:00,72.1,70.0,29.97,South,181,1.0,3.0,93,0.00,,,0.00,Wunderground v.1.15,2013-01-14 00:33:00,
2013-01-13 18:43:00,72.2,70.1,29.97,SSW,209,1.0,2.0,93,0.00,,,0.00,Wunderground v.1.15,2013-01-14 00:43:00,
2013-01-13 18:48:00,72.2,70.1,29.97,SSW,203,1.0,1.0,93,0.00,,,0.00,Wunderground v.1.15,2013-01-14 00:48:00,
2013-01-13 18:53:00,72.2,70.1,29.97,South,171,1.0,1.0,93,0.00,,,0.00,Wunderground v.1.15,2013-01-14 00:53:00,
2013-01-13 18:58:00,72.2,70.1,29.97,South,182,1.0,4.0,93,0.00,,,0.00,Wunderground v.1.15,2013-01-14 00:58:00,
2013-01-13 19:08:00,72.2,70.1,29.97,SSW,209,1.0,1.0,93,0.00,,,0.00,Wunderground v.1.15,2013-01-14 01:08:00,
2013-01-13 19:13:00,72.3,70.2,29.97,South,171,1.0,3.0,93,0.00,,,0.00,Wunderground v.1.15,2013-01-14 01:13:00,
2013-01-13 19:18:00,72.3,70.2,29.97,South,175,1.0,1.0,93,0.00,,,0.00,Wunderground v.1.15,2013-01-14 01:18:00,
2013-01-13 19:27:00,72.2,70.1,29.96,South,191,0.0,0.0,93,0.00,,,0.00,Wunderground v.1.15,2013-01-14 01:27:00,
2013-01-13 19:33:00,72.2,70.1,29.96,South,170,1.0,1.0,93,0.00,,,0.00,Wunderground v.1.15,2013-01-14 01:33:00,
2013-01-13 19:38:00,72.2,70.1,29.96,South,170,1.0,1.0,93,0.00,,,0.00,Wunderground v.1.15,2013-01-14 01:38:00,
2013-01-13 19:43:00,72.1,70.3,29.96,South,187,0.0,1.0,94,0.00,,,0.00,Wunderground v.1.15,2013-01-14 01:43:00,
2013-01-13 19:48:00,72.1,70.0,29.96,ESE,106,1.0,1.0,93,0.00,,,0.00,Wunderground v.1.15,2013-01-14 01:48:00,
2013-01-13 19:52:00,72.1,70.3,29.96,SE,127,1.0,1.0,94,0.00,,,0.00,Wunderground v.1.15,2013-01-14 01:52:00,
2013-01-13 19:58:00,72.1,70.3,29.96,SSW,198,1.0,1.0,94,0.00,,,0.00,Wunderground v.1.15,2013-01-14 01:58:00,
2013-01-13 20:08:00,72.0,70.2,29.96,SSW,202,1.0,1.0,94,0.00,,,0.00,Wunderground v.1.15,2013-01-14 02:08:00,
2013-01-13 20:12:00,72.0,70.2,29.96,SSW,199,0.0,1.0,94,0.00,,,0.00,Wunderground v.1.15,2013-01-14 02:12:00,
2013-01-13 20:18:00,71.9,70.1,29.96,South,188,1.0,1.0,94,0.00,,,0.00,Wunderground v.1.15,2013-01-14 02:18:00,
2013-01-13 20:23:00,71.9,70.1,29.96,SSW,203,1.0,2.0,94,0.00,,,0.00,Wunderground v.1.15,2013-01-14 02:23:00,
2013-01-13 20:28:00,71.9,70.1,29.95,SSW,199,0.0,0.0,94,0.00,,,0.00,Wunderground v.1.15,2013-01-14 02:28:00,
2013-01-13 20:33:00,71.8,70.0,29.95,South,173,0.0,0.0,94,0.00,,,0.00,Wunderground v.1.15,2013-01-14 02:33:00,
2013-01-13 20:38:00,71.7,69.9,29.96,South,183,1.0,7.0,94,0.00,,,0.00,Wunderground v.1.15,2013-01-14 02:38:00,
2013-01-13 20:42:00,71.7,69.9,29.96,SSW,192,1.0,7.0,94,0.00,,,0.00,Wunderground v.1.15,2013-01-14 02:42:00,
2013-01-13 20:48:00,71.7,69.9,29.96,South,186,1.0,1.0,94,0.00,,,0.00,Wunderground v.1.15,2013-01-14 02:48:00,
2013-01-13 20:53:00,71.7,69.9,29.96,South,189,1.0,1.0,94,0.00,,,0.00,Wunderground v.1.15,2013-01-14 02:53:00,
2013-01-13 20:58:00,71.7,69.9,29.96,SSW,196,1.0,1.0,94,0.00,,,0.00,Wunderground v.1.15,2013-01-14 02:58:00,
2013-01-13 21:08:00,71.5,69.7,29.97,SSW,195,1.0,1.0,94,0.00,,,0.00,Wunderground v.1.15,2013-01-14 03:08:00,
2013-01-13 21:13:00,71.4,69.6,29.97,South,180,1.0,1.0,94,0.00,,,0.00,Wunderground v.1.15,2013-01-14 03:13:00,
2013-01-13 21:18:00,71.4,69.6,29.97,South,180,0.0,0.0,94,0.00,,,0.00,Wunderground v.1.15,2013-01-14 03:18:00,
2013-01-13 21:23:00,71.3,69.5,29.97,SE,143,0.0,0.0,94,0.00,,,0.00,Wunderground v.1.15,2013-01-14 03:23:00,
2013-01-13 21:28:00,71.3,69.5,29.97,South,177,0.0,1.0,94,0.00,,,0.00,Wunderground v.1.15,2013-01-14 03:28:00,
2013-01-13 21:33:00,71.3,69.5,29.97,South,190,0.0,1.0,94,0.00,,,0.00,Wunderground v.1.15,2013-01-14 03:33:00,
2013-01-13 21:38:00,71.3,69.5,29.97,SSW,194,1.0,1.0,94,0.00,,,0.00,Wunderground v.1.15,2013-01-14 03:38:00,
2013-01-13 21:43:00,71.3,69.8,29.97,South,178,1.0,1.0,95,0.00,,,0.00,Wunderground v.1.15,2013-01-14 03:43:00,
2013-01-13 21:48:00,71.2,69.7,29.98,South,188,1.0,1.0,95,0.00,,,0.00,Wunderground v.1.15,2013-01-14 03:48:00,
2013-01-13 21:53:00,71.2,69.4,29.97,SSW,195,1.0,1.0,94,0.00,,,0.00,Wunderground v.1.15,2013-01-14 03:53:00,
2013-01-13 21:57:00,71.2,69.4,29.97,SE,132,0.0,0.0,94,0.00,,,0.00,Wunderground v.1.15,2013-01-14 03:57:00,
2013-01-13 22:08:00,71.1,69.6,29.97,SSE,164,0.0,0.0,95,0.00,,,0.00,Wunderground v.1.15,2013-01-14 04:08:00,
2013-01-13 22:13:00,71.1,69.6,29.97,SSE,166,0.0,0.0,95,0.00,,,0.00,Wunderground v.1.15,2013-01-14 04:13:00,
2013-01-13 22:18:00,71.1,69.6,29.97,South,171,0.0,2.0,95,0.00,,,0.00,Wunderground v.1.15,2013-01-14 04:18:00,
2013-01-13 22:23:00,71.2,69.7,29.97,South,173,0.0,2.0,95,0.00,,,0.00,Wunderground v.1.15,2013-01-14 04:23:00,
2013-01-13 22:28:00,71.3,69.8,29.97,South,170,1.0,1.0,95,0.00,,,0.00,Wunderground v.1.15,2013-01-14 04:28:00,
2013-01-13 22:33:00,71.3,69.8,29.97,SSE,165,1.0,1.0,95,0.00,,,0.00,Wunderground v.1.15,2013-01-14 04:33:00,
2013-01-13 22:38:00,71.3,69.8,29.97,SSW,196,1.0,1.0,95,0.00,,,0.00,Wunderground v.1.15,2013-01-14 04:38:00,
2013-01-13 22:43:00,71.3,69.8,29.97,ESE,123,1.0,1.0,95,0.00,,,0.00,Wunderground v.1.15,2013-01-14 04:43:00,
2013-01-13 22:48:00,71.3,69.8,29.97,South,181,1.0,1.0,95,0.00,,,0.00,Wunderground v.1.15,2013-01-14 04:48:00,
2013-01-13 22:53:00,71.3,69.8,29.97,South,180,1.0,1.0,95,0.00,,,0.00,Wunderground v.1.15,2013-01-14 04:53:00,
2013-01-13 22:58:00,71.3,69.5,29.97,South,182,1.0,1.0,94,0.00,,,0.00,Wunderground v.1.15,2013-01-14 04:58:00,
2013-01-13 23:07:00,71.3,69.5,29.97,SSW,202,0.0,0.0,94,0.00,,,0.00,Wunderground v.1.15,2013-01-14 05:07:00,
2013-01-13 23:13:00,71.3,69.8,29.97,SSW,202,0.0,0.0,95,0.00,,,0.00,Wunderground v.1.15,2013-01-14 05:13:00,
2013-01-13 23:18:00,71.3,69.8,29.97,South,185,0.0,2.0,95,0.00,,,0.00,Wunderground v.1.15,2013-01-14 05:18:00,
2013-01-13 23:23:00,71.3,69.8,29.97,South,184,0.0,2.0,95,0.00,,,0.00,Wunderground v.1.15,2013-01-14 05:23:00,
2013-01-13 23:28:00,71.3,69.8,29.97,South,187,0.0,0.0,95,0.00,,,0.00,Wunderground v.1.15,2013-01-14 05:28:00,
2013-01-13 23:37:00,71.4,69.9,29.97,South,175,1.0,1.0,95,0.00,,,0.00,Wunderground v.1.15,2013-01-14 05:37:00,
2013-01-13 23:43:00,71.3,69.5,29.97,South,185,1.0,1.0,94,0.00,,,0.00,Wunderground v.1.15,2013-01-14 05:43:00,
2013-01-13 23:48:00,71.4,69.6,29.97,SSE,163,1.0,1.0,94,0.00,,,0.00,Wunderground v.1.15,2013-01-14 05:48:00,
2013-01-13 23:53:00,71.4,69.6,29.97,SSW,202,0.0,1.0,94,0.00,,,0.00,Wunderground v.1.15,2013-01-14 05:53:00,
2013-01-13 23:58:00,71.4,69.6,29.97,SSW,202,0.0,0.0,94,0.00,,,0.00,Wunderground v.1.15,2013-01-14 05:58:00,